DELTA 1 DEB, 7069

Orbit data source: Space-Track

DELTA 1 DEB, 7069 is space debris in SSO originally from a launch on Tue, 06 Nov 1973 UTC launched from the Air Force Western Test Range (AFWTR). Debris objects in space refer to the collection of defunct objects orbiting the Earth. Examples of debris include non-operational satellites, rocket bodies, and fragments generated from explosions, collisions, or faulty payload assembly.

Loading next visibility...
Identifier
7069, 1973-086BM
Orbit
SSO
Country
Flag of USUS
Related business
Manufacturer
Unknown
Mission
Spacecraft
Bus & Motor
Unknown
Mass
Unknown
Launch date (UTC)
1973-11-06 (52 years ago)
Launch vehicle
Unknown
Launch site
Air Force Western Test Range (AFWTR)
Object type
Payload
Rocket body
Debris
Shape & HBR
Unknown shape, 0.1 m
Radar Cross Section
Small (<0.1 m²)

Expand to show TLE details & history
Last TLE update: 11 hours ago

TLE from 11 hours ago
0 DELTA 1 DEB
1 07069U 73086BM  26034.51557397  .00002323  00000-0  25824-2 0  9996
2 07069 102.7801  35.8453 0246858 315.0994  43.0400 13.60864049544178
Epoch: 2026-02-03T12:22Z
TLE epoch observation values (Epoch: 2026-02-03T12:22:25.591Z)
Latitude
-0.00001°
Longitude
76.54328°
Altitude
903.668 km
Speed
7.466 km/s
True Right ascension
02h 23m 22s
True Declination
0° 00' 00"
Sunlit
Object was in daylight at epoch
Visualization orbit readout
Latitude
Unknown
Longitude
Unknown
Altitude
Unknown
Speed
Unknown
Apparent Right ascension
Unknown
Apparent Declination
Unknown
Sunlit
N/A
Visualization observer readout
Local Sidereal Time
01:44:49
Azimuth
Unknown
Elevation
Unknown
Doppler factor
Unknown
Orbital elements
Apogee altitude
1,212.898 km
Perigee altitude
847.145 km
Semi-major axis
7,408.158 km
Eccentricity
0.02469
Inclination
102.7801°
RAAN
35.8453°
Arg. of periapsis
315.0994°
True anomaly
45.01478°
Mean anomaly
43.04°
Eccentric anomaly
44.02293°
Mean motion
3.40391 °/min
Orbital period
105.76 mins
BSTAR
0.0025824
Loading maneuver chart data...
Computing Atmospheric mass density...
Loading historical data...
Loading historical data...
Loading historical data...
Loading historical data...
Loading historical data...
Loading historical data...
Loading historical data...

Documentation

Showing up to 5 results
|